sat.trackr.live / text

‹ back to catalog

STARLINK-37894

NORAD 69966 · 2026-157Z

PAYLOAD ACTIVE UNKNOWN

§ Identity

Operator
Country
US
Launch date
2026-07-09
Launch site
AFETR
Launch vehicle
Mass (kg)
RCS (m²)

Purposes: comms

External: N2YO · Heavens-Above · Gunter

§ Orbital elements

Epoch: 2026-09-20T05:06:25.657344Z

Period
93.85 min
Inclination
53.1584°
Eccentricity
0.0001584
Mean motion
15.34429390 rev/d
Perigee alt
461.5 km
Apogee alt
463.7 km
Semi-major
6,840.8 km
B*
4.5671e-4
RAAN
334.7192°
Arg perigee
314.4601°
Mean anomaly
45.6271°
Rev number
1,133

§ Raw data

STARLINK-378941 69966U 26157Z   26263.21279696  .00015100  00000+0  45671-3 0  99902 69966  53.1584 334.7192 0001584 314.4601  45.6271 15.34429390 11333

JSON: /api/v1/satellites/69966 · /tle

For live sub-satellite position, see the globe view (requires WebGL).

§ Visibility from observer

Set your observer location to see the next 7 days of passes ≥ 10°. The values pass through the URL so the page stays shareable.

No JS? Fill the form by hand. The geolocation button needs JavaScript.